TimeCST,TemperatureF,Dew PointF,Humidity,Sea Level PressureIn,VisibilityMPH,Wind Direction,Wind SpeedMPH,Gust SpeedMPH,PrecipitationIn,Events,Conditions,WindDirDegrees,DateUTC
12:15 AM,17.6,15.8,93,29.68,5.0,Calm,Calm,-,N/A,,Clear,0,2013-01-19 06:15:00
12:34 AM,17.6,15.8,93,29.68,4.0,Calm,Calm,-,N/A,,Scattered Clouds,0,2013-01-19 06:34:00
12:53 AM,15.8,15.8,100,29.67,3.0,South,3.5,-,N/A,,Mostly Cloudy,170,2013-01-19 06:53:00
1:15 AM,15.8,14.0,93,29.65,3.0,Calm,Calm,-,N/A,,Mostly Cloudy,0,2013-01-19 07:15:00
1:35 AM,17.6,15.8,93,29.65,4.0,Calm,Calm,-,N/A,,Clear,0,2013-01-19 07:35:00
1:53 AM,17.6,17.6,100,29.64,4.0,SSE,3.5,-,N/A,,Clear,160,2013-01-19 07:53:00
2:15 AM,17.6,15.8,93,29.67,4.0,SSW,4.6,-,N/A,,Clear,210,2013-01-19 08:15:00
2:35 AM,17.6,15.8,93,29.67,3.0,Calm,Calm,-,N/A,,Clear,0,2013-01-19 08:35:00
2:52 AM,17.6,15.8,93,29.67,4.0,Calm,Calm,-,N/A,,Clear,0,2013-01-19 08:52:00
3:15 AM,19.4,17.6,93,29.66,5.0,SSW,4.6,-,N/A,,Clear,210,2013-01-19 09:15:00
3:35 AM,15.8,15.8,100,29.67,4.0,Calm,Calm,-,N/A,,Clear,0,2013-01-19 09:35:00
3:53 AM,17.6,17.6,100,29.64,5.0,SSW,6.9,-,N/A,,Scattered Clouds,200,2013-01-19 09:53:00
4:00 AM,19.4,19.4,100,29.64,5.0,South,3.5,-,N/A,,Scattered Clouds,180,2013-01-19 10:00:00
4:21 AM,17.6,15.8,93,29.64,5.0,NNW,1.2,-,N/A,,Scattered Clouds,340,2013-01-19 10:21:00
4:41 AM,17.6,15.8,93,29.64,5.0,NW,2.3,-,N/A,,Clear,320,2013-01-19 10:41:00
5:01 AM,17.6,15.8,93,29.64,4.0,SW,3.5,-,N/A,,Clear,230,2013-01-19 11:01:00
5:21 AM,15.8,14.0,93,29.64,4.0,West,3.5,-,N/A,,Clear,260,2013-01-19 11:21:00
5:43 AM,19.4,19.4,100,29.64,7.0,WSW,6.9,-,N/A,,Clear,240,2013-01-19 11:43:00
5:53 AM,21.2,21.2,100,29.63,10.0,WSW,8.1,-,N/A,,Clear,240,2013-01-19 11:53:00
6:15 AM,21.2,21.2,100,29.64,10.0,WSW,6.9,-,N/A,,Clear,250,2013-01-19 12:15:00
6:35 AM,23.0,21.2,93,29.65,10.0,West,11.5,-,N/A,,Clear,260,2013-01-19 12:35:00
6:52 AM,21.2,21.2,100,29.65,10.0,West,11.5,-,N/A,,Clear,260,2013-01-19 12:52:00
7:15 AM,24.8,23.0,93,29.66,10.0,West,11.5,-,N/A,,Clear,260,2013-01-19 13:15:00
7:35 AM,24.8,23.0,93,29.66,10.0,West,9.2,-,N/A,,Clear,260,2013-01-19 13:35:00
7:52 AM,24.8,23.0,93,29.66,10.0,West,8.1,-,N/A,,Scattered Clouds,270,2013-01-19 13:52:00
8:15 AM,24.8,21.2,86,29.68,10.0,West,10.4,-,N/A,,Scattered Clouds,280,2013-01-19 14:15:00
8:35 AM,26.6,24.8,93,29.68,10.0,WNW,11.5,-,N/A,,Overcast,290,2013-01-19 14:35:00
8:52 AM,26.6,24.8,93,29.69,10.0,West,8.1,-,N/A,,Overcast,270,2013-01-19 14:52:00
9:15 AM,26.6,24.8,93,29.70,10.0,WNW,12.7,18.4,N/A,,Overcast,300,2013-01-19 15:15:00
9:35 AM,26.6,24.8,93,29.70,10.0,West,12.7,18.4,N/A,,Overcast,280,2013-01-19 15:35:00
9:53 AM,26.6,24.8,93,29.71,10.0,WNW,10.4,19.6,N/A,,Overcast,300,2013-01-19 15:53:00
10:15 AM,26.6,24.8,93,29.72,10.0,WNW,18.4,26.5,N/A,,Overcast,300,2013-01-19 16:15:00
10:35 AM,26.6,21.2,80,29.73,7.0,WNW,21.9,33.4,N/A,,Overcast,300,2013-01-19 16:35:00
10:53 AM,24.8,21.2,86,29.74,4.0,WNW,23.0,34.5,N/A,,Overcast,300,2013-01-19 16:53:00
11:15 AM,21.2,14.0,74,29.76,3.0,WNW,27.6,38.0,N/A,,Haze,290,2013-01-19 17:15:00
11:35 AM,15.8,10.4,79,29.78,7.0,WNW,18.4,29.9,N/A,,Overcast,290,2013-01-19 17:35:00
11:52 AM,12.2,6.8,79,29.78,7.0,West,15.0,34.5,N/A,,Mostly Cloudy,280,2013-01-19 17:52:00
12:15 PM,10.4,3.2,73,29.80,4.0,WNW,29.9,35.7,N/A,,Haze,300,2013-01-19 18:15:00
12:35 PM,10.4,3.2,73,29.80,5.0,WNW,31.1,41.4,N/A,,Haze,300,2013-01-19 18:35:00
12:53 PM,8.6,1.4,73,29.81,3.0,WNW,23.0,44.9,N/A,,Haze,290,2013-01-19 18:53:00
1:15 PM,8.6,1.4,73,29.81,2.0,WNW,31.1,38.0,N/A,,Haze,300,2013-01-19 19:15:00
1:34 PM,6.8,-0.4,72,29.84,3.0,WNW,23.0,39.1,N/A,,Haze,300,2013-01-19 19:34:00
1:53 PM,6.8,-0.4,72,29.85,4.0,WNW,23.0,35.7,N/A,,Haze,290,2013-01-19 19:53:00
2:15 PM,6.8,-2.2,67,29.86,2.5,NW,29.9,36.8,N/A,,Haze,310,2013-01-19 20:15:00
2:35 PM,6.8,-2.2,67,29.88,5.0,WNW,28.8,38.0,N/A,,Haze,300,2013-01-19 20:35:00
3:15 PM,3.2,-4.0,72,29.92,1.5,NW,35.7,42.6,N/A,,Haze,310,2013-01-19 21:15:00
3:35 PM,1.4,-7.6,66,29.93,4.0,WNW,26.5,43.7,N/A,,Haze,300,2013-01-19 21:35:00
3:53 PM,1.4,-5.8,72,29.96,1.8,NW,25.3,34.5,N/A,Snow,Light Snow,320,2013-01-19 21:53:00
4:15 PM,-0.4,-7.6,72,29.98,3.0,WNW,27.6,36.8,N/A,,Haze,300,2013-01-19 22:15:00
4:35 PM,-2.2,-7.6,78,30.00,3.0,NW,28.8,38.0,N/A,,Haze,310,2013-01-19 22:35:00
4:52 PM,-2.2,-7.6,78,30.01,3.0,NW,20.7,35.7,N/A,,Haze,310,2013-01-19 22:52:00
5:14 PM,-2.2,-7.6,78,30.02,2.5,NW,25.3,36.8,N/A,,Haze,310,2013-01-19 23:14:00
5:35 PM,-2.2,-7.6,78,30.05,2.5,NW,23.0,31.1,N/A,,Overcast,310,2013-01-19 23:35:00
5:51 PM,-2.2,-9.4,71,30.06,5.0,NW,20.7,31.1,N/A,,Haze,310,2013-01-19 23:51:00
6:15 PM,-2.2,-9.4,71,30.07,5.0,NW,17.3,28.8,N/A,,Haze,310,2013-01-20 00:15:00
6:35 PM,-4.0,-9.4,78,30.09,4.0,NW,23.0,32.2,N/A,,Haze,310,2013-01-20 00:35:00
6:53 PM,-4.0,-9.4,78,30.11,10.0,NW,19.6,32.2,N/A,,Overcast,310,2013-01-20 00:53:00
7:15 PM,-5.8,-9.4,84,30.12,7.0,NW,19.6,26.5,N/A,,Overcast,310,2013-01-20 01:15:00
7:35 PM,-5.8,-9.4,84,30.14,5.0,NW,17.3,23.0,N/A,,Haze,310,2013-01-20 01:35:00
7:53 PM,-5.8,-11.2,77,30.15,5.0,NW,19.6,26.5,N/A,,Haze,320,2013-01-20 01:53:00
8:15 PM,-5.8,-9.4,84,30.17,3.0,NW,12.7,-,N/A,,Mostly Cloudy,310,2013-01-20 02:15:00
8:35 PM,-5.8,-11.2,77,30.17,5.0,NW,12.7,-,N/A,,Haze,320,2013-01-20 02:35:00
8:53 PM,-5.8,-11.2,77,30.18,7.0,WNW,8.1,-,N/A,,Overcast,300,2013-01-20 02:53:00
9:14 PM,-7.6,-11.2,84,30.19,10.0,WNW,12.7,19.6,N/A,,Overcast,300,2013-01-20 03:14:00
9:34 PM,-7.6,-13.0,77,30.20,10.0,NW,11.5,24.2,N/A,,Mostly Cloudy,310,2013-01-20 03:34:00
9:53 PM,-7.6,-13.0,77,30.20,5.0,WNW,11.5,-,N/A,,Haze,300,2013-01-20 03:53:00
10:15 PM,-7.6,-13.0,77,30.20,10.0,NW,11.5,17.3,N/A,,Mostly Cloudy,320,2013-01-20 04:15:00
10:35 PM,-9.4,-14.8,77,30.20,10.0,NNW,13.8,17.3,N/A,,Scattered Clouds,330,2013-01-20 04:35:00
10:53 PM,-9.4,-14.8,77,30.21,10.0,NW,11.5,-,N/A,,Clear,310,2013-01-20 04:53:00
11:15 PM,-9.4,-14.8,77,30.23,10.0,WNW,10.4,-,N/A,,Scattered Clouds,300,2013-01-20 05:15:00
11:35 PM,-9.4,-14.8,77,30.24,10.0,WNW,13.8,-,N/A,,Scattered Clouds,300,2013-01-20 05:35:00
11:53 PM,-9.4,-14.8,77,30.23,10.0,WNW,13.8,-,N/A,,Clear,300,2013-01-20 05:53:00